NJE1065 LEIB-GCHI

Flight info

Callsign NJE1065
Flight time 2h 52m
Altitude 41000
Route BAVER M603 ALT N851 VJF L82 RUNAX UL82 IBALU UN857 TERTO N857 LZR N871 GDV Z526 HIE
Aircraft C750/L-VGDW/C

Departure

Time 2026-05-07 06:43
Airport Ibiza Airport (LEIB)

Arrival

Time 2026-05-07 09:36
Airport El Hierro Airport (GCHI)
Time Latitude Longitude Altitude Speed Heading
2026-05-07 06:17 38.87756 1.37416 5 ft 0 kts 333°
2026-05-07 06:31 38.87746 1.37423 5 ft 2 kts 333°
2026-05-07 06:31 38.87731 1.37433 5 ft 2 kts 333°
2026-05-07 06:32 38.87717 1.37442 5 ft 2 kts 332°
2026-05-07 06:32 38.87702 1.37453 5 ft 2 kts 321°
2026-05-07 06:32 38.87699 1.37456 5 ft 0 kts 301°
2026-05-07 06:38 38.87693 1.37427 5 ft 8 kts 249°
2026-05-07 06:38 38.87650 1.37319 5 ft 17 kts 242°
2026-05-07 06:39 38.87596 1.37190 5 ft 16 kts 242°
2026-05-07 06:39 38.87541 1.37055 5 ft 20 kts 242°
2026-05-07 06:39 38.87473 1.36885 5 ft 21 kts 242°
2026-05-07 06:39 38.87460 1.36853 5 ft 0 kts 242°
2026-05-07 06:40 38.87443 1.36813 5 ft 12 kts 238°
2026-05-07 06:40 38.87373 1.36820 5 ft 12 kts 153°
2026-05-07 06:40 38.87284 1.36852 5 ft 14 kts 214°
2026-05-07 06:41 38.87231 1.36731 5 ft 19 kts 243°
2026-05-07 06:41 38.87161 1.36559 5 ft 25 kts 243°
2026-05-07 06:41 38.87070 1.36336 4 ft 31 kts 242°
2026-05-07 06:41 38.86962 1.36076 4 ft 33 kts 242°
2026-05-07 06:42 38.86861 1.35835 4 ft 23 kts 233°
2026-05-07 06:42 38.86746 1.35872 2 ft 18 kts 151°
2026-05-07 06:42 38.86741 1.35999 2 ft 15 kts 61°
2026-05-07 06:42 38.86869 1.36310 2 ft 92 kts 62°
2026-05-07 06:43 38.87297 1.37341 7 ft 159 kts 62°
2026-05-07 06:43 38.87860 1.38694 230 ft 176 kts 62°
2026-05-07 06:43 38.88415 1.40091 965 ft 178 kts 64°
2026-05-07 06:43 38.88689 1.41724 1445 ft 202 kts 87°
2026-05-07 06:44 38.88843 1.43510 2581 ft 196 kts 79°
2026-05-07 06:44 38.89149 1.45231 3626 ft 202 kts 76°
2026-05-07 06:44 38.89501 1.47009 4649 ft 207 kts 76°
2026-05-07 06:44 38.89846 1.48834 5618 ft 214 kts 77°
2026-05-07 06:45 38.90195 1.50715 6549 ft 220 kts 77°
2026-05-07 06:45 38.90364 1.52676 7237 ft 237 kts 97°
2026-05-07 06:45 38.89599 1.54686 7611 ft 271 kts 131°
2026-05-07 06:45 38.87977 1.55987 8625 ft 275 kts 154°
2026-05-07 06:46 38.86204 1.56987 9638 ft 284 kts 157°
2026-05-07 06:46 38.84373 1.58029 10506 ft 289 kts 156°
2026-05-07 06:46 38.82539 1.59120 11432 ft 291 kts 156°
2026-05-07 06:46 38.80691 1.60219 12342 ft 294 kts 157°
2026-05-07 06:47 38.78815 1.61318 13248 ft 298 kts 157°
2026-05-07 06:47 38.76919 1.62428 14098 ft 301 kts 158°
2026-05-07 06:47 38.74987 1.63440 14788 ft 305 kts 167°
2026-05-07 06:47 38.72881 1.63516 15539 ft 303 kts 190°
2026-05-07 06:48 38.70815 1.62991 16421 ft 303 kts 194°
2026-05-07 06:48 38.68746 1.62395 17260 ft 306 kts 195°
2026-05-07 06:48 38.66645 1.61807 18135 ft 310 kts 195°
2026-05-07 06:48 38.64527 1.61208 18923 ft 311 kts 198°
2026-05-07 06:49 38.62580 1.59988 19189 ft 326 kts 218°
2026-05-07 06:49 38.60960 1.57819 19161 ft 352 kts 236°
2026-05-07 06:49 38.60000 1.54853 19389 ft 369 kts 256°
2026-05-07 06:49 38.59563 1.51633 20269 ft 368 kts 259°
2026-05-07 06:50 38.59181 1.48354 20870 ft 375 kts 259°
2026-05-07 06:50 38.58795 1.45052 21674 ft 376 kts 258°
2026-05-07 06:50 38.58404 1.41743 22427 ft 378 kts 260°
2026-05-07 06:50 38.58334 1.38349 23170 ft 384 kts 268°
2026-05-07 06:51 38.58635 1.34973 23847 ft 391 kts 275°
2026-05-07 06:51 38.59333 1.31577 24436 ft 399 kts 283°
2026-05-07 06:51 38.60435 1.28280 25019 ft 408 kts 291°
2026-05-07 06:51 38.61869 1.25104 25582 ft 414 kts 294°
2026-05-07 06:52 38.63330 1.21921 26157 ft 416 kts 293°
2026-05-07 06:52 38.64784 1.18707 26736 ft 419 kts 293°
2026-05-07 06:52 38.66263 1.15457 27265 ft 424 kts 294°
2026-05-07 06:52 38.67762 1.12188 27770 ft 429 kts 294°
2026-05-07 06:53 38.69275 1.08870 28320 ft 433 kts 294°
2026-05-07 06:53 38.70775 1.05567 28886 ft 436 kts 294°
2026-05-07 06:53 38.72308 1.02190 29422 ft 440 kts 294°
2026-05-07 06:53 38.73854 0.98790 29961 ft 443 kts 294°
2026-05-07 06:54 38.75411 0.95358 30436 ft 446 kts 294°
2026-05-07 06:54 38.76972 0.91911 30942 ft 448 kts 293°
2026-05-07 06:54 38.78536 0.88463 31674 ft 444 kts 293°
2026-05-07 06:54 38.80062 0.85093 32440 ft 439 kts 293°
2026-05-07 06:55 38.81588 0.81710 33190 ft 436 kts 292°
2026-05-07 06:55 38.82993 0.78297 33905 ft 427 kts 287°
2026-05-07 06:55 38.84044 0.74778 34567 ft 419 kts 281°
2026-05-07 06:55 38.84762 0.71184 35154 ft 412 kts 275°
2026-05-07 06:56 38.85151 0.67567 35761 ft 405 kts 269°
2026-05-07 06:56 38.85223 0.64025 36362 ft 400 kts 264°
2026-05-07 06:56 38.84994 0.60490 36931 ft 397 kts 259°
2026-05-07 06:56 38.84459 0.56970 36954 ft 406 kts 253°
2026-05-07 06:57 38.83594 0.53463 36954 ft 417 kts 248°
2026-05-07 06:57 38.82476 0.49982 36968 ft 426 kts 245°
2026-05-07 06:57 38.79415 0.43360 36970 ft 441 kts 236°
2026-05-07 06:58 38.75999 0.36725 36972 ft 438 kts 237°
2026-05-07 06:58 38.74352 0.33534 36953 ft 426 kts 236°
2026-05-07 06:58 38.72702 0.30363 36950 ft 428 kts 236°
2026-05-07 06:59 38.69400 0.23991 36951 ft 431 kts 236°
2026-05-07 06:59 38.66102 0.17646 36951 ft 431 kts 236°
2026-05-07 07:00 38.62790 0.11284 36956 ft 428 kts 236°
2026-05-07 07:00 38.59478 0.04932 36957 ft 429 kts 236°
2026-05-07 07:01 38.56161 -0.01415 36976 ft 431 kts 236°
2026-05-07 07:01 38.52814 -0.07806 36962 ft 432 kts 236°
2026-05-07 07:02 38.49481 -0.14158 36961 ft 433 kts 236°
2026-05-07 07:02 38.46124 -0.20543 36955 ft 432 kts 236°
2026-05-07 07:03 38.42765 -0.26922 36952 ft 432 kts 236°
2026-05-07 07:03 38.39422 -0.33255 36952 ft 433 kts 236°
2026-05-07 07:04 38.37761 -0.36398 37838 ft 416 kts 236°
2026-05-07 07:04 38.36191 -0.39365 39210 ft 392 kts 236°
2026-05-07 07:04 38.34665 -0.42249 39545 ft 395 kts 236°
2026-05-07 07:04 38.33138 -0.45130 39866 ft 398 kts 236°
2026-05-07 07:05 38.31587 -0.48054 40248 ft 399 kts 236°
2026-05-07 07:05 38.30024 -0.50997 40616 ft 401 kts 236°
2026-05-07 07:05 38.28453 -0.53954 40944 ft 404 kts 236°
2026-05-07 07:05 38.26906 -0.57002 40928 ft 415 kts 240°
2026-05-07 07:06 38.25624 -0.60354 40938 ft 426 kts 245°
2026-05-07 07:06 38.24387 -0.63825 40953 ft 435 kts 244°
2026-05-07 07:06 38.21815 -0.70910 40947 ft 452 kts 244°
2026-05-07 07:07 38.19164 -0.78271 40955 ft 463 kts 244°
2026-05-07 07:07 38.16451 -0.85746 40941 ft 467 kts 244°
2026-05-07 07:08 38.14186 -0.91986 40946 ft 468 kts 244°
2026-05-07 07:08 38.11004 -1.00725 40950 ft 468 kts 244°
2026-05-07 07:09 38.08708 -1.07015 40952 ft 469 kts 244°
2026-05-07 07:09 38.05976 -1.14486 40952 ft 469 kts 244°
2026-05-07 07:10 38.03211 -1.22023 40959 ft 471 kts 244°
2026-05-07 07:10 38.00441 -1.29559 40962 ft 472 kts 244°
2026-05-07 07:11 37.97675 -1.37062 40952 ft 472 kts 244°
2026-05-07 07:11 37.94890 -1.44601 40971 ft 472 kts 244°
2026-05-07 07:12 37.92110 -1.52106 40952 ft 470 kts 244°
2026-05-07 07:12 37.89318 -1.59625 40962 ft 474 kts 244°
2026-05-07 07:13 37.86520 -1.67141 40960 ft 474 kts 244°
2026-05-07 07:13 37.83695 -1.74709 40966 ft 474 kts 244°
2026-05-07 07:14 37.80872 -1.82256 40973 ft 474 kts 244°
2026-05-07 07:14 37.78041 -1.89803 40971 ft 475 kts 244°
2026-05-07 07:15 37.75218 -1.97312 40976 ft 477 kts 244°
2026-05-07 07:15 37.72354 -2.04910 40969 ft 478 kts 244°
2026-05-07 07:16 37.69489 -2.12491 40952 ft 478 kts 244°
2026-05-07 07:16 37.66629 -2.20044 40963 ft 476 kts 244°
2026-05-07 07:17 37.63783 -2.27538 40962 ft 476 kts 244°
2026-05-07 07:17 37.60904 -2.35104 40971 ft 479 kts 244°
2026-05-07 07:18 37.58012 -2.42682 40970 ft 479 kts 244°
2026-05-07 07:18 37.55135 -2.50203 40969 ft 479 kts 244°
2026-05-07 07:19 37.52227 -2.57788 40963 ft 480 kts 244°
2026-05-07 07:19 37.49316 -2.65359 40952 ft 480 kts 244°
2026-05-07 07:20 37.46410 -2.72901 40951 ft 482 kts 244°
2026-05-07 07:20 37.43477 -2.80495 40947 ft 480 kts 244°
2026-05-07 07:21 37.40547 -2.88062 40945 ft 482 kts 244°
2026-05-07 07:21 37.37626 -2.95588 40947 ft 481 kts 244°
2026-05-07 07:22 37.34684 -3.03148 40950 ft 481 kts 244°
2026-05-07 07:22 37.31730 -3.10723 40954 ft 484 kts 244°
2026-05-07 07:23 37.28763 -3.18313 40949 ft 483 kts 244°
2026-05-07 07:23 37.25809 -3.25849 40959 ft 484 kts 244°
2026-05-07 07:24 37.22831 -3.33429 40962 ft 483 kts 244°
2026-05-07 07:24 37.19849 -3.40999 40965 ft 484 kts 244°
2026-05-07 07:25 37.15378 -3.52317 40965 ft 482 kts 244°
2026-05-07 07:26 37.12412 -3.59805 40963 ft 482 kts 244°
2026-05-07 07:26 37.09418 -3.67344 40966 ft 482 kts 244°
2026-05-07 07:27 37.06419 -3.74875 40960 ft 482 kts 244°
2026-05-07 07:27 37.03415 -3.82404 40962 ft 483 kts 244°
2026-05-07 07:28 37.00406 -3.89926 40959 ft 483 kts 245°
2026-05-07 07:28 36.97412 -3.97393 40948 ft 483 kts 244°
2026-05-07 07:29 36.94390 -4.04913 40943 ft 483 kts 244°
2026-05-07 07:29 36.91378 -4.12388 40923 ft 479 kts 244°
2026-05-07 07:30 36.88380 -4.19814 40932 ft 479 kts 244°
2026-05-07 07:30 36.85371 -4.27247 40935 ft 479 kts 244°
2026-05-07 07:31 36.82357 -4.34679 40938 ft 479 kts 244°
2026-05-07 07:31 36.79882 -4.42330 40935 ft 478 kts 251°
2026-05-07 07:32 36.77596 -4.50126 40940 ft 478 kts 250°
2026-05-07 07:32 36.75323 -4.57936 40951 ft 478 kts 251°
2026-05-07 07:33 36.73033 -4.65753 40945 ft 480 kts 251°
2026-05-07 07:33 36.71884 -4.69656 41105 ft 475 kts 251°
2026-05-07 07:33 36.70794 -4.73375 42250 ft 451 kts 250°
2026-05-07 07:33 36.69728 -4.77010 42909 ft 443 kts 250°
2026-05-07 07:34 36.68656 -4.80646 42922 ft 451 kts 250°
2026-05-07 07:34 36.66452 -4.88107 42927 ft 466 kts 250°
2026-05-07 07:35 36.64187 -4.95767 42922 ft 475 kts 250°
2026-05-07 07:35 36.61879 -5.03540 42948 ft 482 kts 250°
2026-05-07 07:36 36.59542 -5.11394 42936 ft 484 kts 250°
2026-05-07 07:36 36.57193 -5.19267 42943 ft 485 kts 250°
2026-05-07 07:37 36.54855 -5.27078 42939 ft 485 kts 250°
2026-05-07 07:37 36.52497 -5.34934 42946 ft 485 kts 250°
2026-05-07 07:38 36.49962 -5.42691 42924 ft 485 kts 244°
2026-05-07 07:38 36.46552 -5.49949 42944 ft 486 kts 241°
2026-05-07 07:39 36.43145 -5.57195 42946 ft 486 kts 241°
2026-05-07 07:39 36.39706 -5.64437 42944 ft 486 kts 241°
2026-05-07 07:40 36.36297 -5.71629 42931 ft 485 kts 241°
2026-05-07 07:40 36.32878 -5.78813 42929 ft 483 kts 241°
2026-05-07 07:41 36.29456 -5.85996 42933 ft 483 kts 241°
2026-05-07 07:41 36.26033 -5.93162 42933 ft 483 kts 241°
2026-05-07 07:42 36.22349 -6.00143 42934 ft 485 kts 234°
2026-05-07 07:42 36.18256 -6.06798 42943 ft 485 kts 235°
2026-05-07 07:43 36.14174 -6.13461 42945 ft 486 kts 235°
2026-05-07 07:43 36.10066 -6.20115 42947 ft 486 kts 235°
2026-05-07 07:44 36.05990 -6.26734 42933 ft 487 kts 235°
2026-05-07 07:44 36.01873 -6.33387 42932 ft 487 kts 235°
2026-05-07 07:45 35.97777 -6.40005 42934 ft 487 kts 235°
2026-05-07 07:45 35.93656 -6.46643 42938 ft 487 kts 235°
2026-05-07 07:46 35.89521 -6.53296 42940 ft 488 kts 235°
2026-05-07 07:46 35.85378 -6.59944 42940 ft 488 kts 235°
2026-05-07 07:47 35.81264 -6.66535 42938 ft 488 kts 235°
2026-05-07 07:47 35.77118 -6.73165 42944 ft 488 kts 235°
2026-05-07 07:48 35.72964 -6.79794 42948 ft 488 kts 235°
2026-05-07 07:48 35.68803 -6.86422 42952 ft 488 kts 235°
2026-05-07 07:49 35.64669 -6.92994 42948 ft 488 kts 235°
2026-05-07 07:49 35.60490 -6.99627 42952 ft 488 kts 235°
2026-05-07 07:50 35.56347 -7.06188 42954 ft 488 kts 235°
2026-05-07 07:50 35.52177 -7.12780 42956 ft 489 kts 235°
2026-05-07 07:51 35.47996 -7.19376 42964 ft 489 kts 235°
2026-05-07 07:51 35.43835 -7.25931 42966 ft 490 kts 235°
2026-05-07 07:52 35.39637 -7.32529 42971 ft 490 kts 235°
2026-05-07 07:52 35.35435 -7.39121 42971 ft 490 kts 235°
2026-05-07 07:53 35.31234 -7.45699 42974 ft 490 kts 235°
2026-05-07 07:53 35.27027 -7.52275 42973 ft 490 kts 235°
2026-05-07 07:54 35.22818 -7.58841 42966 ft 490 kts 235°
2026-05-07 07:54 35.18644 -7.65338 42971 ft 487 kts 236°
2026-05-07 07:55 35.14451 -7.71859 42970 ft 487 kts 236°
2026-05-07 07:55 35.10960 -7.77273 42969 ft 487 kts 236°
2026-05-07 07:56 35.06074 -7.84840 42971 ft 487 kts 236°
2026-05-07 07:56 35.02551 -7.90286 42971 ft 487 kts 236°
2026-05-07 07:57 34.98348 -7.96773 42954 ft 487 kts 236°
2026-05-07 07:57 34.94180 -8.03192 42980 ft 486 kts 236°
2026-05-07 07:58 34.89975 -8.09659 42997 ft 486 kts 236°
2026-05-07 07:58 34.85793 -8.16076 42985 ft 486 kts 236°
2026-05-07 07:59 34.81579 -8.22533 42985 ft 486 kts 235°
2026-05-07 07:59 34.77364 -8.28978 43000 ft 486 kts 235°
2026-05-07 08:00 34.73176 -8.35369 42978 ft 484 kts 235°
2026-05-07 08:00 34.69001 -8.41730 42987 ft 480 kts 236°
2026-05-07 08:01 34.64815 -8.48098 42983 ft 481 kts 235°
2026-05-07 08:01 34.60658 -8.54407 42987 ft 481 kts 235°
2026-05-07 08:02 34.56468 -8.60758 42985 ft 481 kts 235°
2026-05-07 08:02 34.52276 -8.67099 42993 ft 481 kts 235°
2026-05-07 08:03 34.48108 -8.73392 42989 ft 481 kts 235°
2026-05-07 08:03 34.43696 -8.79528 42985 ft 487 kts 227°
2026-05-07 08:04 34.38392 -8.84726 42998 ft 490 kts 223°
2026-05-07 08:04 34.33086 -8.89851 43003 ft 490 kts 223°
2026-05-07 08:05 34.27725 -8.94979 43002 ft 490 kts 223°
2026-05-07 08:05 34.22410 -9.00076 43000 ft 490 kts 223°
2026-05-07 08:06 34.17057 -9.05191 42999 ft 490 kts 223°
2026-05-07 08:06 34.11702 -9.10304 42993 ft 489 kts 223°
2026-05-07 08:07 34.06342 -9.15412 43002 ft 491 kts 223°
2026-05-07 08:07 34.00998 -9.20495 43002 ft 492 kts 223°
2026-05-07 08:08 33.95619 -9.25605 43000 ft 492 kts 223°
2026-05-07 08:08 33.90239 -9.30707 43002 ft 492 kts 223°
2026-05-07 08:09 33.84861 -9.35798 42989 ft 491 kts 223°
2026-05-07 08:09 33.79513 -9.40853 42997 ft 492 kts 223°
2026-05-07 08:10 33.74123 -9.45938 42997 ft 492 kts 223°
2026-05-07 08:10 33.68739 -9.51010 43001 ft 491 kts 223°
2026-05-07 08:11 33.63354 -9.56075 43001 ft 491 kts 223°
2026-05-07 08:11 33.57997 -9.61105 42999 ft 491 kts 223°
2026-05-07 08:12 33.52614 -9.66151 43000 ft 491 kts 223°
2026-05-07 08:12 33.47227 -9.71192 43000 ft 491 kts 223°
2026-05-07 08:13 33.41836 -9.76230 42997 ft 491 kts 223°
2026-05-07 08:13 33.36443 -9.81262 42996 ft 491 kts 223°
2026-05-07 08:14 33.31100 -9.86236 43001 ft 489 kts 223°
2026-05-07 08:14 33.25716 -9.91245 43005 ft 489 kts 223°
2026-05-07 08:15 33.20328 -9.96246 43001 ft 489 kts 223°
2026-05-07 08:15 33.14985 -10.01199 43000 ft 489 kts 223°
2026-05-07 08:16 33.09607 -10.06176 43001 ft 489 kts 223°
2026-05-07 08:16 33.04226 -10.11148 43004 ft 489 kts 223°
2026-05-07 08:17 32.98836 -10.16119 43003 ft 489 kts 223°
2026-05-07 08:17 32.93446 -10.21073 42999 ft 489 kts 223°
2026-05-07 08:18 32.88090 -10.25994 43001 ft 488 kts 223°
2026-05-07 08:18 32.82703 -10.30932 43000 ft 488 kts 223°
2026-05-07 08:19 32.77346 -10.35836 43000 ft 488 kts 223°
2026-05-07 08:19 32.71961 -10.40758 42977 ft 488 kts 223°
2026-05-07 08:20 32.66571 -10.45677 43011 ft 488 kts 223°
2026-05-07 08:20 32.61184 -10.50585 43013 ft 488 kts 222°
2026-05-07 08:21 32.55796 -10.55487 43016 ft 488 kts 222°
2026-05-07 08:21 32.50446 -10.60346 43010 ft 486 kts 222°
2026-05-07 08:22 32.45061 -10.65230 43009 ft 487 kts 222°
2026-05-07 08:22 32.39702 -10.70083 43010 ft 488 kts 222°
2026-05-07 08:23 32.34298 -10.74970 43008 ft 490 kts 222°
2026-05-07 08:23 32.28862 -10.79877 43012 ft 492 kts 222°
2026-05-07 08:24 32.23408 -10.84792 43016 ft 493 kts 222°
2026-05-07 08:24 32.17980 -10.89677 43018 ft 493 kts 222°
2026-05-07 08:25 32.12507 -10.94595 43003 ft 493 kts 222°
2026-05-07 08:25 32.07053 -10.99489 43011 ft 492 kts 222°
2026-05-07 08:26 31.98864 -11.06822 43008 ft 492 kts 222°
2026-05-07 08:26 31.93435 -11.11673 43008 ft 492 kts 222°
2026-05-07 08:27 31.87969 -11.16551 43011 ft 493 kts 222°
2026-05-07 08:27 31.82501 -11.21424 43016 ft 493 kts 222°
2026-05-07 08:28 31.77020 -11.26299 43022 ft 493 kts 222°
2026-05-07 08:28 31.71547 -11.31172 43023 ft 493 kts 222°
2026-05-07 08:29 31.66119 -11.36021 43013 ft 492 kts 222°
2026-05-07 08:29 31.60662 -11.40873 43012 ft 492 kts 222°
2026-05-07 08:30 31.55205 -11.45726 42996 ft 492 kts 222°
2026-05-07 08:30 31.49735 -11.50578 43021 ft 493 kts 222°
2026-05-07 08:31 31.44289 -11.55405 43027 ft 493 kts 222°
2026-05-07 08:31 31.38820 -11.60243 43021 ft 493 kts 221°
2026-05-07 08:32 31.33340 -11.65084 43019 ft 493 kts 221°
2026-05-07 08:32 31.27888 -11.69894 43023 ft 493 kts 221°
2026-05-07 08:33 31.22412 -11.74717 43020 ft 493 kts 221°
2026-05-07 08:33 31.16923 -11.79544 43024 ft 493 kts 221°
2026-05-07 08:34 31.11436 -11.84364 43020 ft 493 kts 221°
2026-05-07 08:34 31.05939 -11.89184 43019 ft 493 kts 221°
2026-05-07 08:35 31.00494 -11.93950 43019 ft 487 kts 221°
2026-05-07 08:35 30.95076 -11.98690 43017 ft 487 kts 221°
2026-05-07 08:36 30.89678 -12.03397 43020 ft 477 kts 221°
2026-05-07 08:36 30.84378 -12.08025 43022 ft 479 kts 221°
2026-05-07 08:37 30.79028 -12.12678 43022 ft 479 kts 221°
2026-05-07 08:37 30.73687 -12.17324 43021 ft 479 kts 221°
2026-05-07 08:38 30.68371 -12.21938 43023 ft 479 kts 221°
2026-05-07 08:38 30.63015 -12.26581 43033 ft 481 kts 221°
2026-05-07 08:39 30.57652 -12.31223 43034 ft 480 kts 221°
2026-05-07 08:39 30.52297 -12.35853 43035 ft 480 kts 221°
2026-05-07 08:40 30.46932 -12.40477 43036 ft 480 kts 221°
2026-05-07 08:40 30.41593 -12.45058 43032 ft 479 kts 221°
2026-05-07 08:41 30.36233 -12.49661 43029 ft 479 kts 221°
2026-05-07 08:41 30.30857 -12.54266 43034 ft 480 kts 221°
2026-05-07 08:42 30.25479 -12.58868 43030 ft 480 kts 221°
2026-05-07 08:42 30.20134 -12.63434 43032 ft 480 kts 221°
2026-05-07 08:43 30.14758 -12.68021 43033 ft 480 kts 221°
2026-05-07 08:43 30.10293 -12.71826 43033 ft 480 kts 221°
2026-05-07 08:44 30.04045 -12.77172 43028 ft 480 kts 221°
2026-05-07 08:44 29.99584 -12.80982 43040 ft 481 kts 221°
2026-05-07 08:45 29.94193 -12.85578 43039 ft 481 kts 221°
2026-05-07 08:45 29.88806 -12.90168 43039 ft 481 kts 221°
2026-05-07 08:46 29.83447 -12.94725 43037 ft 481 kts 221°
2026-05-07 08:46 29.78054 -12.99306 43038 ft 481 kts 221°
2026-05-07 08:47 29.72662 -13.03880 43041 ft 482 kts 221°
2026-05-07 08:47 29.67257 -13.08459 43045 ft 482 kts 221°
2026-05-07 08:48 29.61890 -13.13000 43041 ft 482 kts 221°
2026-05-07 08:48 29.56495 -13.17557 43038 ft 481 kts 221°
2026-05-07 08:49 29.51097 -13.22112 43039 ft 481 kts 221°
2026-05-07 08:49 29.45703 -13.26656 43042 ft 481 kts 221°
2026-05-07 08:50 29.40295 -13.31207 43043 ft 482 kts 221°
2026-05-07 08:50 29.34915 -13.35726 43042 ft 482 kts 221°
2026-05-07 08:51 29.29496 -13.40275 43041 ft 482 kts 221°
2026-05-07 08:51 29.24074 -13.44818 43039 ft 482 kts 221°
2026-05-07 08:52 29.18747 -13.49392 43017 ft 479 kts 225°
2026-05-07 08:52 29.14408 -13.55032 43024 ft 468 kts 240°
2026-05-07 08:53 29.10921 -13.61313 43034 ft 468 kts 241°
2026-05-07 08:53 29.07413 -13.67587 43032 ft 468 kts 241°
2026-05-07 08:54 29.03945 -13.73828 43038 ft 468 kts 241°
2026-05-07 08:54 29.00440 -13.80097 43037 ft 468 kts 241°
2026-05-07 08:55 28.96939 -13.86364 43034 ft 467 kts 241°
2026-05-07 08:55 28.93434 -13.92621 43034 ft 467 kts 241°
2026-05-07 08:56 28.89938 -13.98856 43045 ft 467 kts 241°
2026-05-07 08:56 28.86435 -14.05095 43044 ft 467 kts 241°
2026-05-07 08:57 28.82943 -14.11304 43046 ft 467 kts 241°
2026-05-07 08:57 28.79432 -14.17536 43044 ft 467 kts 241°
2026-05-07 08:58 28.75943 -14.23722 43053 ft 467 kts 241°
2026-05-07 08:58 28.72425 -14.29949 43052 ft 467 kts 241°
2026-05-07 08:59 28.68902 -14.36175 43055 ft 467 kts 241°
2026-05-07 08:59 28.65394 -14.42368 43054 ft 467 kts 241°
2026-05-07 09:00 28.61870 -14.48576 43054 ft 466 kts 241°
2026-05-07 09:00 28.58345 -14.54782 43057 ft 467 kts 241°
2026-05-07 09:01 28.54832 -14.60954 43053 ft 467 kts 240°
2026-05-07 09:01 28.51294 -14.67162 43056 ft 467 kts 240°
2026-05-07 09:02 28.47756 -14.73359 43057 ft 467 kts 240°
2026-05-07 09:02 28.44207 -14.79567 43057 ft 467 kts 240°
2026-05-07 09:03 28.40679 -14.85732 43057 ft 468 kts 240°
2026-05-07 09:03 28.37124 -14.91933 43057 ft 468 kts 240°
2026-05-07 09:04 28.33565 -14.98131 43052 ft 468 kts 240°
2026-05-07 09:04 28.30024 -15.04290 43051 ft 468 kts 240°
2026-05-07 09:05 28.26461 -15.10477 43051 ft 468 kts 240°
2026-05-07 09:05 28.22895 -15.16663 43050 ft 468 kts 240°
2026-05-07 09:06 28.19323 -15.22847 43041 ft 468 kts 240°
2026-05-07 09:06 28.15755 -15.29017 43041 ft 468 kts 240°
2026-05-07 09:07 28.12199 -15.35157 43045 ft 468 kts 240°
2026-05-07 09:07 28.08666 -15.41347 43031 ft 466 kts 244°
2026-05-07 09:08 28.06225 -15.48041 43042 ft 461 kts 255°
2026-05-07 09:08 28.04225 -15.54968 43057 ft 462 kts 254°
2026-05-07 09:09 28.02217 -15.61892 43051 ft 462 kts 254°
2026-05-07 09:09 28.00216 -15.68798 43040 ft 460 kts 254°
2026-05-07 09:10 27.99217 -15.72225 42830 ft 452 kts 254°
2026-05-07 09:10 27.98264 -15.75491 42240 ft 435 kts 255°
2026-05-07 09:10 27.97332 -15.78691 41675 ft 420 kts 255°
2026-05-07 09:10 27.96434 -15.81782 41142 ft 409 kts 255°
2026-05-07 09:11 27.95547 -15.84829 40604 ft 407 kts 256°
2026-05-07 09:11 27.94656 -15.87885 40075 ft 413 kts 256°
2026-05-07 09:11 27.93748 -15.90996 39530 ft 418 kts 256°
2026-05-07 09:11 27.92831 -15.94125 38986 ft 421 kts 256°
2026-05-07 09:12 27.91906 -15.97281 38383 ft 423 kts 256°
2026-05-07 09:12 27.90993 -16.00398 37817 ft 423 kts 256°
2026-05-07 09:12 27.90063 -16.03570 37272 ft 425 kts 256°
2026-05-07 09:12 27.89127 -16.06756 36699 ft 426 kts 256°
2026-05-07 09:13 27.88189 -16.09944 36141 ft 427 kts 256°
2026-05-07 09:13 27.87250 -16.13137 35579 ft 429 kts 256°
2026-05-07 09:13 27.86325 -16.16352 35003 ft 428 kts 257°
2026-05-07 09:13 27.85744 -16.19609 34443 ft 426 kts 265°
2026-05-07 09:14 27.85570 -16.22944 33866 ft 425 kts 271°
2026-05-07 09:14 27.85524 -16.26296 33295 ft 427 kts 271°
2026-05-07 09:14 27.85455 -16.29662 32732 ft 429 kts 270°
2026-05-07 09:14 27.85382 -16.33059 32161 ft 431 kts 270°
2026-05-07 09:15 27.85322 -16.36414 31587 ft 432 kts 270°
2026-05-07 09:15 27.85264 -16.39815 31020 ft 434 kts 270°
2026-05-07 09:15 27.85197 -16.43241 30444 ft 437 kts 270°
2026-05-07 09:15 27.85127 -16.46652 29839 ft 432 kts 270°
2026-05-07 09:16 27.85060 -16.50028 29270 ft 428 kts 269°
2026-05-07 09:16 27.84995 -16.53385 28709 ft 424 kts 269°
2026-05-07 09:16 27.84928 -16.56701 28155 ft 420 kts 269°
2026-05-07 09:16 27.84860 -16.59961 27611 ft 417 kts 269°
2026-05-07 09:17 27.84793 -16.63227 27067 ft 414 kts 269°
2026-05-07 09:17 27.84726 -16.66461 26526 ft 411 kts 269°
2026-05-07 09:17 27.84658 -16.69685 25987 ft 408 kts 269°
2026-05-07 09:17 27.84589 -16.72880 25453 ft 406 kts 268°
2026-05-07 09:18 27.84520 -16.76056 24920 ft 402 kts 268°
2026-05-07 09:18 27.84452 -16.79218 24396 ft 399 kts 268°
2026-05-07 09:18 27.84383 -16.82344 23873 ft 396 kts 268°
2026-05-07 09:18 27.84314 -16.85442 23315 ft 393 kts 268°
2026-05-07 09:19 27.84245 -16.88482 22804 ft 391 kts 268°
2026-05-07 09:19 27.84175 -16.91538 22303 ft 388 kts 268°
2026-05-07 09:19 27.84105 -16.94588 21783 ft 386 kts 268°
2026-05-07 09:19 27.84035 -16.97616 21285 ft 383 kts 268°
2026-05-07 09:20 27.83965 -17.00627 20780 ft 381 kts 268°
2026-05-07 09:20 27.83894 -17.03620 20281 ft 379 kts 268°
2026-05-07 09:20 27.83824 -17.06553 19784 ft 376 kts 268°
2026-05-07 09:20 27.83753 -17.09501 19290 ft 374 kts 268°
2026-05-07 09:21 27.83682 -17.12431 18801 ft 372 kts 268°
2026-05-07 09:21 27.83611 -17.15345 18310 ft 370 kts 268°
2026-05-07 09:21 27.83539 -17.18241 17793 ft 367 kts 268°
2026-05-07 09:21 27.83468 -17.21120 17312 ft 366 kts 268°
2026-05-07 09:22 27.83396 -17.23990 16834 ft 364 kts 268°
2026-05-07 09:22 27.83324 -17.26845 16354 ft 362 kts 268°
2026-05-07 09:22 27.83251 -17.29680 15881 ft 360 kts 268°
2026-05-07 09:22 27.83179 -17.32500 15410 ft 358 kts 268°
2026-05-07 09:23 27.83106 -17.35309 14942 ft 357 kts 268°
2026-05-07 09:23 27.83034 -17.38069 14480 ft 355 kts 268°
2026-05-07 09:23 27.82961 -17.40854 14012 ft 353 kts 269°
2026-05-07 09:23 27.82888 -17.43627 13520 ft 352 kts 269°
2026-05-07 09:24 27.82814 -17.46383 13056 ft 349 kts 269°
2026-05-07 09:24 27.82740 -17.49129 12601 ft 348 kts 269°
2026-05-07 09:24 27.82666 -17.51860 12149 ft 347 kts 269°
2026-05-07 09:24 27.82591 -17.54589 11689 ft 346 kts 269°
2026-05-07 09:25 27.82517 -17.57287 11235 ft 336 kts 269°
2026-05-07 09:25 27.82446 -17.59792 10821 ft 310 kts 269°
2026-05-07 09:25 27.82379 -17.62169 10437 ft 291 kts 269°
2026-05-07 09:25 27.82318 -17.64402 10067 ft 286 kts 270°
2026-05-07 09:26 27.82256 -17.66635 9677 ft 283 kts 270°
2026-05-07 09:26 27.82194 -17.68856 9300 ft 281 kts 269°
2026-05-07 09:26 27.82131 -17.71056 8933 ft 279 kts 269°
2026-05-07 09:26 27.82068 -17.73247 8567 ft 278 kts 269°
2026-05-07 09:27 27.82005 -17.75430 8201 ft 276 kts 269°
2026-05-07 09:27 27.81943 -17.77555 7846 ft 273 kts 269°
2026-05-07 09:27 27.81819 -17.81821 7075 ft 270 kts 268°
2026-05-07 09:28 27.81756 -17.83924 6719 ft 267 kts 268°
2026-05-07 09:28 27.81707 -17.86031 6362 ft 267 kts 270°
2026-05-07 09:28 27.82170 -17.88050 5954 ft 266 kts 297°
2026-05-07 09:28 27.83348 -17.89632 5969 ft 267 kts 320°
2026-05-07 09:29 27.84994 -17.90556 5968 ft 271 kts 343°
2026-05-07 09:29 27.86875 -17.90828 5839 ft 277 kts 354°
2026-05-07 09:29 27.88783 -17.90943 5501 ft 269 kts 355°
2026-05-07 09:29 27.90598 -17.91047 5142 ft 254 kts 356°
2026-05-07 09:30 27.92321 -17.91156 4770 ft 243 kts 355°
2026-05-07 09:30 27.93981 -17.91269 4367 ft 231 kts 356°
2026-05-07 09:30 27.95444 -17.91381 3970 ft 196 kts 356°
2026-05-07 09:30 27.96718 -17.91580 3369 ft 178 kts 340°
2026-05-07 09:31 27.97589 -17.92558 2377 ft 186 kts 294°
2026-05-07 09:31 27.97529 -17.94037 1433 ft 205 kts 243°
2026-05-07 09:31 27.96452 -17.94979 1192 ft 190 kts 190°
2026-05-07 09:31 27.95243 -17.94985 1349 ft 160 kts 175°
2026-05-07 09:32 27.94183 -17.94918 1512 ft 156 kts 175°
2026-05-07 09:32 27.93101 -17.94878 1716 ft 157 kts 174°
2026-05-07 09:32 27.91993 -17.94740 1674 ft 160 kts 160°
2026-05-07 09:32 27.91031 -17.94214 1692 ft 146 kts 149°
2026-05-07 09:33 27.90137 -17.93736 1683 ft 141 kts 151°
2026-05-07 09:33 27.89252 -17.93283 1677 ft 139 kts 153°
2026-05-07 09:33 27.88376 -17.92798 1634 ft 142 kts 152°
2026-05-07 09:33 27.87509 -17.92311 1484 ft 139 kts 151°
2026-05-07 09:34 27.86948 -17.91998 1377 ft 132 kts 151°
2026-05-07 09:34 27.86141 -17.91566 1192 ft 125 kts 152°
2026-05-07 09:34 27.85377 -17.91155 1136 ft 121 kts 151°
2026-05-07 09:34 27.84606 -17.90741 1069 ft 122 kts 151°
2026-05-07 09:35 27.83848 -17.90333 1047 ft 118 kts 151°
2026-05-07 09:35 27.83208 -17.89780 739 ft 122 kts 137°
2026-05-07 09:35 27.82490 -17.89264 300 ft 123 kts 159°
2026-05-07 09:35 27.81749 -17.88855 90 ft 100 kts 153°
2026-05-07 09:36 27.81473 -17.88692 101 ft 15 kts 152°
2026-05-07 09:36 27.81450 -17.88637 102 ft 8 kts 67°
2026-05-07 09:36 27.81457 -17.88597 102 ft 3 kts 133°
2026-05-07 09:36 27.81444 -17.88589 102 ft 0 kts 152°
2026-05-07 09:37 27.81443 -17.88589 102 ft 0 kts 152°